Regional Weather Roundup
Issued by NWS Sterling, VA

Home | Current Version | Previous Version | Text Only | Print | Product List | Glossary Off
Versions: 1 2 3 4 5 6 7 8 9 10 11 12 13 14 15 16 17 18 19 20 21 22 23 24 25 26 27 28 29 30 31 32 33 34 35 36 37 38 39 40 41 42 43 44 45 46 47 48 49 50

000
ASUS41 KLWX 180310
RWRLWX

REGIONAL WEATHER ROUNDUP
NATIONAL WEATHER SERVICE BALTIMORE MD/WASHINGTON DC
1000 PM EST WED DEC 17 2014

Note: "FAIR" indicates few or no clouds below 12,000 feet
with no significant weather and/or obstructions to visibility.
 TC=TEMPERATURE CELSIUS

 * =Non NWS site. Station does not report precipitation (e.g. rain,
    snow, etc.), thunder, or fog.

DCZ001-MDZ009-015-VAZ040>042-051-053>054-180400-
WASHINGTON METRO

CITY           SKY/WX    TMP DP  RH WIND       PRES   REMARKS
WASHINGTON NAT CLEAR     42  24  49 NW17G25   30.05S
DULLES         PTCLDY    36  24  62 NW9       30.05F WCI  29
ANDREWS AFB    CLEAR     39  25  56 NW16      30.03F
FT BELVOIR     CLEAR     40  24  52 NW13      30.05F
QUANTICO       CLEAR     39  24  55 N8        30.07S
COLLEGE PARK*  CLEAR     39  27  60 NW10      30.04S
LEESBURG*      CLOUDY    37  28  70 MISG      30.06F
MANASSAS*      CLEAR     37  27  65 N12       30.05S
GAITHERSBURG*  MOCLDY    36  21  55 NW12G21   30.07F WCI  27

$$

MDZ006>007-011-014-180400-
BALTIMORE METRO

CITY           SKY/WX    TMP DP  RH WIND       PRES   REMARKS
BWI AIRPORT    PTCLDY    36  24  62 NW6       30.04S
MD SCIENCE CTR   N/A     39  23  52 MISG      30.05R
MARTIN STATE   PTCLDY    39  27  60 W12       30.06R
ANNAPOLIS      CLEAR     41  27  57 NW9       30.03R
FORT MEADE*    CLEAR     37  27  65 NW12G23   30.05F

$$

MDZ012-015-019>023-180400-
MARYLAND EASTERN SHORE

CITY           SKY/WX    TMP DP  RH WIND       PRES   REMARKS
OCEAN CITY     CLEAR     39  29  67 NW6       30.01S
SALISBURY      CLEAR     41  29  62 NW5       30.02S
BAY BRIDGE AP*   N/A     39  27  60 NW13      30.04R
CAMBRIDGE*     CLEAR     43  28  56 NW13      30.03R
EASTON*        CLEAR     41  29  62 N9        30.06

$$

MDZ017>025-180400-
SOUTHERN MARYLAND

CITY           SKY/WX    TMP DP  RH WIND       PRES   REMARKS
PATUXENT RIVER PTCLDY    42  27  55 NW12      30.04R
ST INIGOES     CLEAR     43  25  49 NW9       30.04R
LEONARDTOWN*   CLEAR     41  27  56 CALM      30.06R

$$

MDZ003>005-180400-
NORTH CENTRAL MARYLAND

CITY           SKY/WX    TMP DP  RH WIND       PRES   REMARKS
FREDERICK*     CLOUDY    39  21  48 W9G18     30.09F
HAGERSTOWN APT CLOUDY    37  22  54 NW17      30.05S WCI  27
WESTMINSTER*   MOCLDY    36  27  69 NW12G21   30.02F WCI  27

$$

MDZ501>502-180400-
WESTERN MARYLAND

CITY           SKY/WX    TMP DP  RH WIND       PRES   REMARKS
OAKLAND*       CLOUDY    23 N/A N/A W13G28    30.00S WCI  11
CUMBERLAND*    CLOUDY    36  23  60 W14       30.13F WCI  27

$$

VAZ025>031-180400-
SHENANDOAH VALLEY

CITY           SKY/WX    TMP DP  RH WIND       PRES   REMARKS
WINCHESTER*    MOCLDY    37  21  52 NW18G24   30.05F WCI  27
FRONT ROYAL*   FAIR      34  25  69 NW6       30.05F
LURAY*         FAIR      37  27  65 NW5       30.05S
NEW MARKET*    FAIR      35  23  61 NW3       30.05S
STAUNTON*      PTCLDY    34  24  66 SW6       30.06R
WAYNESBORO*    FAIR      35  23  60 W5        30.04R

$$

WVZ021-048>050-054>055-180400-
EASTERN WEST VIRGINIA PANHANDLE

CITY           SKY/WX    TMP DP  RH WIND       PRES   REMARKS
MARTINSBURG    CLOUDY    38  20  48 VRB5      30.07F
PETERSBURG*    PTCLDY    37  20  52 W23G32    30.08S WCI  25

$$

VAZ036>039-050-180400-
CENTRAL FOOTHILLS

CITY           SKY/WX    TMP DP  RH WIND       PRES   REMARKS
CHARLOTTESVILL PTCLDY    42  23  46 NW5       30.04R
CULPEPER*      CLEAR     37  27  65 N5        30.05S
ORANGE*        PTCLDY    32  28  86 CALM      30.06S
GORDONSVILLE*  FAIR      42  22  45 CALM      30.03S
WARRENTON*     FAIR      38  30  72 NW8       30.04S

$$

VAZ055>057-180400-
NORTH AND CENTRAL PIEDMONT

CITY           SKY/WX    TMP DP  RH WIND       PRES   REMARKS
FREDERICKSBRG* CLEAR     37  28  70 CALM      30.05S
STAFFORD*      CLEAR     37  24  60 N3        30.09S

$$

NCZ024-NYZ072-PAZ021-071-VAZ022-071-180400-
OTHER REGIONAL OBSERVATIONS

CITY           SKY/WX    TMP DP  RH WIND       PRES   REMARKS
NEW YORK CITY  CLOUDY    44  28  53 W10       29.91F
PHILADELPHIA   PTCLDY    41  23  48 W14       30.00R
PITTSBURGH     FLURRIES  30  20  66 W21G26    30.11R WCI  17
ROANOKE        PTCLDY    41  24  51 NW18G26   30.09S
RICHMOND       MOCLDY    42  31  64 N5        30.04R
RALEIGH        MOCLDY    41  35  79 CALM      30.08S

$$

ANZ530>537-180400-
MARINE OBSERVATIONS

STATION/POSITION TIME  TEMP    WIND        PRES
                       AIR SEA DIR/SP/G
                 (UTC) (F)     (DEG/KT/KT) (MB)
THOMAS PT LIGHT  0300   41 43  320/ 15/ 19 1018.0F
BALT KEY BRIDGE  0300   40     290/ 13/ 15 1017.3F
COVE POINT       0300   42     350/ 16/ 17 1017.0R
LEWISETTA        0300   44 44  340/  7/  9 1017.2R
SOLOMONS ISLAND  0300      45                N/A
PINEY POINT      0300          350/ 16/ 18   N/A

$$



USA.gov is the U.S. government's official web portal to all federal, state and local government web resources and services.